[[{"header":{"parameterUnit":"m.s-1","parameterCategory":1,"la1":30.2991,"la2":30.254,"lo1":-89.0895,"lo2":-89.0444,"dy":0.0017,"dx":0.0017,"nx":28,"ny":28,"refTime":"2024-09-26T09:00:00:Z","depth":0,"parameterNumber":2,"parameterNumberName":"U-component_of_WINDS"},"data":[0,0,0,0,0,0,0,0,0,0,0,0,0,0,0,0,0,0,0,0,0,0,0,0,0,0,0,0,0,0,0,0,0,0,0,0,0,0,0,0,0,0,0,0,0,0,0,0,0,0,0,0,0,0,0,0,0,0,-1.8118,-1.8119,0,-1.8187,-1.8188,-1.8189,-1.8186,-1.8185,-1.8184,-1.8183,-1.8252,-1.8254,-1.8257,0,0,0,0,0,0,0,0,0,0,0,0,0,-1.7981,-1.7984,-1.8118,-1.8119,-1.812,-1.8187,-1.8188,-1.8189,-1.8186,-1.8184,-1.8183,-1.8182,-1.8251,-1.8254,-1.8257,0,0,0,0,0,0,0,0,0,0,0,0,0,-1.8045,-1.7985,-1.8118,-1.8126,-1.8128,-1.8187,-1.8188,-1.8189,-1.8186,-1.8184,-1.8183,-1.8182,-1.825,-1.8254,-1.8258,-1.8312,0,0,-1.827,-1.8272,0,0,0,0,0,0,0,0,-1.8041,-1.805,-1.8124,-1.8126,-1.8128,-1.8176,-1.8165,-1.823,-1.8186,-1.8164,-1.8183,-1.8181,-1.8228,-1.8233,-1.825,-1.8316,-1.8318,-1.8271,-1.8273,-1.8275,-1.8276,0,0,0,0,0,0,0,-1.8037,-1.8047,-1.8145,-1.8125,-1.8128,-1.8126,-1.8133,-1.8177,-1.8203,-1.8166,-1.8166,-1.8174,-1.8228,-1.8246,-1.8251,-1.8319,-1.8271,-1.8274,-1.8277,-1.8278,-1.8433,-1.8434,0,0,0,0,0,0,-1.8031,-1.8043,-1.8143,-1.8147,-1.808,-1.813,-1.8138,-1.8162,-1.8203,-1.8207,-1.8175,-1.8174,-1.8239,-1.8246,-1.8254,-1.832,-1.8275,-1.8279,-1.8281,-1.8431,-1.8433,-1.8435,0,0,0,0,0,0,-1.8028,-1.804,-1.814,-1.8095,-1.8108,-1.8134,-1.8161,-1.8164,-1.8182,-1.821,-1.8214,-1.8188,-1.8238,-1.8248,-1.8298,-1.8322,-1.8281,-1.8284,-1.8429,-1.8431,-1.8434,-1.8453,0,0,0,0,0,0,-1.8024,-1.8039,-1.806,-1.8096,-1.811,-1.8184,-1.8162,-1.8167,-1.8189,-1.8188,-1.8223,-1.8228,-1.8238,-1.8291,-1.8302,-1.8327,-1.8288,-1.8427,-1.843,-1.8433,-1.845,-1.8456,-1.846,0,0,0,0,0,-1.8019,-1.8063,-1.8062,-1.8074,-1.8138,-1.8186,-1.8194,-1.8205,-1.8191,-1.8213,-1.823,-1.8227,-1.8318,-1.8297,-1.8308,-1.8335,-1.8425,-1.8429,-1.8433,-1.8448,-1.8455,-1.846,0,0,0,0,0,0,-1.8029,-1.8068,-1.8067,-1.8123,-1.8151,-1.8185,-1.8213,-1.8212,-1.8244,-1.8242,-1.8254,-1.8262,-1.8312,-1.8328,-1.8304,-1.8389,-1.837,-1.8376,-1.8377,-1.8384,-1.8389,-1.8384,-1.8291,0,0,0,0,0,-1.8038,-1.8074,-1.8106,-1.8153,-1.8167,-1.8187,-1.8208,-1.8215,-1.8244,-1.8256,-1.8277,-1.8305,-1.834,-1.8362,-1.8396,-1.8452,-1.8459,-1.8476,-1.8481,-1.8485,-1.8491,-1.8521,-1.8528,-1.8447,-1.8447,-1.8447,0,0,-1.8057,-1.8082,-1.8105,-1.8155,-1.8178,-1.8214,-1.8197,-1.8237,-1.8263,-1.8261,-1.831,-1.8326,-1.8358,-1.8411,-1.8436,-1.8427,-1.8515,-1.849,-1.8493,-1.8496,-1.8525,-1.8533,-1.854,-1.8449,-1.8449,-1.8448,0,0,-1.811,-1.8133,-1.8175,-1.8197,-1.8231,-1.8245,-1.8254,-1.8288,-1.8299,-1.8348,-1.8347,-1.8378,-1.8438,-1.8461,-1.848,-1.854,-1.8538,-1.8551,-1.8578,-1.8607,-1.8613,-1.8619,-1.864,-1.8648,-1.8556,-1.8556,-1.8556,0,-1.8129,-1.8185,-1.8196,-1.8236,-1.8258,-1.8257,-1.8299,-1.832,-1.8363,-1.8378,-1.8367,-1.8442,-1.8463,-1.8521,-1.8535,-1.8551,-1.8562,-1.8547,-1.8611,-1.8617,-1.8623,-1.8643,-1.8651,-1.8557,-1.8557,-1.8557,-1.8557,0,-1.8206,-1.8245,-1.8274,-1.8316,-1.8341,-1.8381,-1.8398,-1.8422,-1.8425,-1.8439,-1.8488,-1.8514,-1.8552,-1.8566,-1.857,-1.8624,-1.8618,-1.8609,-1.8589,-1.8632,-1.8651,-1.8659,-1.8559,-1.8559,-1.8558,-1.8558,0,0,-1.8269,-1.8316,-1.8327,-1.8346,-1.8382,-1.8412,-1.8451,-1.8489,-1.8509,-1.8539,-1.8572,-1.8622,-1.8614,-1.8635,-1.8642,-1.8667,-1.8712,-1.8655,-1.8656,-1.8665,-1.8773,-1.878,-1.8789,-1.8711,-1.8712,-1.8713,-1.8771,0,-1.8326,-1.8398,-1.8408,-1.8471,-1.8506,-1.8505,-1.854,-1.8565,-1.8579,-1.861,-1.8625,-1.866,-1.8647,-1.866,-1.8685,-1.8702,-1.8734,-1.8698,-1.8741,-1.8743,-1.8734,-1.8799,-1.8807,-1.886,-1.8778,-1.878,-1.8781,0,-1.8403,-1.8434,-1.8501,-1.8532,-1.8547,-1.8578,-1.8613,-1.8643,-1.8672,-1.868,-1.8703,-1.8706,-1.8746,-1.8724,-1.8779,-1.8753,-1.8771,-1.8782,-1.8784,-1.8789,-1.8765,-1.8806,-1.8877,-1.8885,-1.8793,-1.8792,-1.8791,0,-1.8442,-1.8501,-1.8548,-1.8564,-1.8602,-1.8624,-1.864,-1.8667,-1.8689,-1.8719,-1.8733,-1.8767,-1.8786,-1.8812,-1.8823,-1.8806,-1.8877,-1.8856,-1.8885,-1.8884,-1.89,-1.8899,-1.8975,-1.8911,-1.8911,-1.8911,-1.8911,0,-1.8505,-1.8545,-1.8566,-1.8595,-1.864,-1.8651,-1.8695,-1.8711,-1.8735,-1.8766,-1.8767,-1.8796,-1.8809,-1.884,-1.8849,-1.8892,-1.8901,-1.8908,-1.891,-1.8908,-1.8907,-1.8921,-1.8918,-1.8913,-1.8913,-1.8912,-1.8912,0,-1.8557,-1.8573,-1.8624,-1.8655,-1.8664,-1.8696,-1.8722,-1.8749,-1.8762,-1.8802,-1.8812,-1.8832,-1.8868,-1.8881,-1.8926,-1.8931,-1.8982,-1.8981,-1.8973,-1.8973,-1.9001,-1.8998,-1.9088,-1.91,-1.9028,-1.9029,-1.9029,0,-1.8596,-1.8628,-1.8662,-1.8684,-1.8701,-1.8735,-1.8757,-1.8769,-1.8792,-1.8826,-1.8849,-1.8885,-1.8915,-1.8972,-1.899,-1.9024,-1.9023,-1.9053,-1.9028,-1.9025,-1.9024,-1.9022,-1.9025,-1.9057,-1.9058,-1.9059,-1.9059,0,-1.8665,-1.8671,-1.8703,-1.8738,-1.8764,-1.8792,-1.8819,-1.8836,-1.8851,-1.8877,-1.8914,-1.8937,-1.8982,-1.9017,-1.9051,-1.9067,-1.9066,-1.9066,-1.9075,-1.9074,-1.9068,-1.9071,-1.8985,-1.9065,-1.9064,-1.9064,-1.9063,-1.9063,-1.8712,-1.8739,-1.8768,-1.8803,-1.8825,-1.885,-1.8877,-1.8893,-1.8925,-1.8963,-1.8967,-1.9007,-1.9033,-1.9079,-1.9096,-1.9126,-1.9118,-1.9131,-1.9134,-1.9137,-1.9138,-1.9062,-1.9133,-1.9132,-1.9132,-1.9132,-1.9132,0,-1.878,-1.8798,-1.8831,-1.8869,-1.8897,-1.8893,-1.8922,-1.8945,-1.898,-1.9005,-1.9034,-1.9077,-1.9111,-1.9131,-1.9165,-1.9185,-1.9185,-1.9194,-1.9193,-1.9196,-1.9144,-1.9133,-1.9193,-1.9193,-1.9193,-1.9193,-1.9193,-1.9193,-1.8819,-1.8865,-1.8874,-1.8931,-1.8948,-1.8988,-1.9005,-1.9027,-1.9047,-1.9094,-1.9123,-1.9136,-1.9159,-1.9194,-1.9225,-1.923,-1.9242,-1.9251,-1.9256,-1.9206,-1.92,-1.9194,-1.9184,-1.9254,-1.9254,-1.9305,-1.9306,-1.9306]},{"header":{"parameterUnit":"m.s-1","parameterCategory":1,"la1":30.2991,"la2":30.254,"lo1":-89.0895,"lo2":-89.0444,"dy":0.0017,"dx":0.0017,"nx":28,"ny":28,"refTime":"2024-09-26T09:00:00:Z","depth":0,"parameterNumber":3,"parameterNumberName":"V-component_of_WINDS"},"data":[0,0,0,0,0,0,0,0,0,0,0,0,0,0,0,0,0,0,0,0,0,0,0,0,0,0,0,0,0,0,0,0,0,0,0,0,0,0,0,0,0,0,0,0,0,0,0,0,0,0,0,0,0,0,0,0,0,0,-8.2816,-8.2817,0,-8.2914,-8.2915,-8.2916,-8.2863,-8.2861,-8.2858,-8.2855,-8.2949,-8.2954,-8.2959,0,0,0,0,0,0,0,0,0,0,0,0,0,-8.2577,-8.2581,-8.2816,-8.2817,-8.2818,-8.2914,-8.2915,-8.2917,-8.2864,-8.286,-8.2857,-8.2854,-8.2947,-8.2953,-8.2959,0,0,0,0,0,0,0,0,0,0,0,0,0,-8.2678,-8.2583,-8.2816,-8.2804,-8.2803,-8.2914,-8.2915,-8.2917,-8.2864,-8.286,-8.2856,-8.2853,-8.2945,-8.2953,-8.296,-8.3086,0,0,-8.2983,-8.2986,0,0,0,0,0,0,0,0,-8.2672,-8.2687,-8.2804,-8.2805,-8.2805,-8.2873,-8.2865,-8.2973,-8.2865,-8.2841,-8.2855,-8.2851,-8.2926,-8.2935,-8.2962,-8.309,-8.3094,-8.2983,-8.2988,-8.2991,-8.2993,0,0,0,0,0,0,0,-8.2665,-8.2682,-8.2854,-8.2806,-8.2806,-8.2791,-8.2801,-8.2886,-8.2904,-8.2843,-8.2839,-8.2852,-8.2925,-8.2955,-8.2964,-8.3095,-8.2983,-8.299,-8.2994,-8.2997,-8.3334,-8.3338,0,0,0,0,0,0,-8.266,-8.2677,-8.2851,-8.2857,-8.2728,-8.2799,-8.281,-8.2855,-8.2903,-8.2907,-8.2855,-8.2849,-8.2944,-8.2955,-8.2967,-8.3119,-8.2991,-8.2998,-8.3002,-8.3329,-8.3335,-8.334,0,0,0,0,0,0,-8.2655,-8.2676,-8.2847,-8.2766,-8.2787,-8.2807,-8.2858,-8.2859,-8.2888,-8.2913,-8.2915,-8.2882,-8.2941,-8.2956,-8.3058,-8.3122,-8.3001,-8.3008,-8.3324,-8.3331,-8.3337,-8.3424,0,0,0,0,0,0,-8.2648,-8.2675,-8.2724,-8.2768,-8.2792,-8.2938,-8.2862,-8.2863,-8.2902,-8.2895,-8.2939,-8.2942,-8.2939,-8.3047,-8.3065,-8.313,-8.3014,-8.3318,-8.3327,-8.3335,-8.3415,-8.3433,-8.3448,0,0,0,0,0,-8.264,-8.2742,-8.2726,-8.2748,-8.2854,-8.2942,-8.2955,-8.2952,-8.2907,-8.2956,-8.2973,-8.2941,-8.3112,-8.3058,-8.3078,-8.3146,-8.3314,-8.3325,-8.3334,-8.3408,-8.3429,-8.3447,0,0,0,0,0,0,-8.2701,-8.2747,-8.2731,-8.285,-8.2893,-8.2933,-8.2994,-8.2974,-8.3029,-8.3019,-8.3011,-8.3021,-8.3127,-8.3146,-8.3085,-8.3271,-8.3206,-8.322,-8.3255,-8.3275,-8.3291,-8.3284,-8.302,0,0,0,0,0,-8.2729,-8.2799,-8.2835,-8.2936,-8.2959,-8.2974,-8.3012,-8.3006,-8.3049,-8.3066,-8.309,-8.3131,-8.3194,-8.3235,-8.3294,-8.3418,-8.3427,-8.3474,-8.3491,-8.3504,-8.3516,-8.3585,-8.3607,-8.3373,-8.3373,-8.3372,0,0,-8.2786,-8.282,-8.2864,-8.295,-8.2982,-8.3054,-8.2989,-8.3066,-8.3119,-8.3077,-8.3175,-8.3194,-8.3239,-8.3353,-8.3404,-8.3372,-8.3584,-8.3517,-8.3527,-8.3532,-8.3598,-8.362,-8.364,-8.338,-8.3378,-8.3377,0,0,-8.2927,-8.296,-8.305,-8.3085,-8.3137,-8.3146,-8.3168,-8.3212,-8.3224,-8.3323,-8.3294,-8.3355,-8.3464,-8.3498,-8.353,-8.3688,-8.3661,-8.3707,-8.3791,-8.3858,-8.3877,-8.3893,-8.3951,-8.3972,-8.372,-8.372,-8.372,0,-8.2991,-8.31,-8.3098,-8.318,-8.3219,-8.3187,-8.3278,-8.3311,-8.3378,-8.3405,-8.3369,-8.3507,-8.3534,-8.3657,-8.3696,-8.3722,-8.3747,-8.3702,-8.3875,-8.3891,-8.3906,-8.3962,-8.3983,-8.3725,-8.3725,-8.3724,-8.3724,0,-8.3177,-8.3253,-8.3319,-8.339,-8.3436,-8.3521,-8.3531,-8.3578,-8.3569,-8.3581,-8.3684,-8.3717,-8.3783,-8.3812,-8.3802,-8.3934,-8.3913,-8.3876,-8.381,-8.3934,-8.3986,-8.4007,-8.3733,-8.3731,-8.3729,-8.3728,0,0,-8.3358,-8.3429,-8.3453,-8.3486,-8.3542,-8.36,-8.3684,-8.3752,-8.3793,-8.3841,-8.3912,-8.4006,-8.3974,-8.4009,-8.4003,-8.4062,-8.4188,-8.4018,-8.4019,-8.405,-8.4337,-8.4365,-8.439,-8.4171,-8.4175,-8.4178,-8.4334,0,-8.3504,-8.3655,-8.3657,-8.3795,-8.3866,-8.3839,-8.3912,-8.3954,-8.3969,-8.403,-8.4045,-8.4113,-8.4064,-8.4086,-8.4143,-8.4161,-8.4245,-8.4149,-8.4236,-8.4239,-8.4227,-8.4417,-8.4446,-8.4592,-8.4354,-8.4357,-8.436,0,-8.3695,-8.3754,-8.39,-8.3949,-8.3979,-8.4046,-8.411,-8.4169,-8.4216,-8.4222,-8.4265,-8.425,-8.4336,-8.4268,-8.4385,-8.432,-8.4355,-8.4369,-8.4375,-8.4383,-8.4307,-8.4431,-8.4638,-8.466,-8.4391,-8.4389,-8.4386,0,-8.3815,-8.3929,-8.4033,-8.4061,-8.412,-8.4168,-8.4195,-8.4238,-8.428,-8.4335,-8.4362,-8.4426,-8.4461,-8.4509,-8.4512,-8.4463,-8.4632,-8.4563,-8.4639,-8.4639,-8.4676,-8.4674,-8.4893,-8.4697,-8.4697,-8.4697,-8.4696,0,-8.3979,-8.407,-8.4088,-8.4152,-8.4253,-8.4254,-8.4354,-8.4375,-8.4415,-8.4481,-8.446,-8.4522,-8.4522,-8.4586,-8.4588,-8.4686,-8.4701,-8.4708,-8.4708,-8.4711,-8.4711,-8.4735,-8.4725,-8.4702,-8.4701,-8.47,-8.4699,0,-8.4129,-8.4145,-8.4257,-8.4305,-8.4319,-8.4392,-8.4432,-8.4493,-8.4507,-8.4591,-8.4611,-8.4632,-8.4706,-8.4714,-8.4799,-8.4801,-8.4919,-8.4907,-8.4905,-8.4903,-8.4979,-8.4973,-8.5222,-8.5255,-8.5037,-8.5039,-8.5041,0,-8.4233,-8.4303,-8.4361,-8.4406,-8.4436,-8.4508,-8.4552,-8.4555,-8.4602,-8.4663,-8.4716,-8.4788,-8.4847,-8.4966,-8.4987,-8.5052,-8.5043,-8.5126,-8.5052,-8.5054,-8.5046,-8.5042,-8.505,-8.514,-8.5142,-8.5144,-8.5146,0,-8.4417,-8.4423,-8.4488,-8.4559,-8.4613,-8.4667,-8.4718,-8.4755,-8.4765,-8.4818,-8.4896,-8.4941,-8.503,-8.5103,-8.5168,-8.5192,-8.5171,-8.5169,-8.519,-8.5195,-8.5191,-8.5196,-8.4945,-8.5163,-8.5161,-8.516,-8.5159,-8.5158,-8.4548,-8.4611,-8.4663,-8.4737,-8.4777,-8.4826,-8.4886,-8.491,-8.4975,-8.505,-8.5048,-8.5133,-8.5179,-8.5265,-8.5295,-8.5361,-8.5333,-8.5364,-8.5371,-8.5379,-8.5388,-8.518,-8.5372,-8.5372,-8.5372,-8.5371,-8.5371,0,-8.4732,-8.4765,-8.4835,-8.4909,-8.4968,-8.4946,-8.5002,-8.5053,-8.5129,-8.5176,-8.5235,-8.5325,-8.5396,-8.5424,-8.5494,-8.5541,-8.5533,-8.5559,-8.5556,-8.5563,-8.5408,-8.5384,-8.5565,-8.5565,-8.5565,-8.5564,-8.5564,-8.5564,-8.4835,-8.4941,-8.4953,-8.5078,-8.5109,-8.5196,-8.523,-8.5275,-8.5313,-8.5415,-8.5476,-8.5495,-8.5534,-8.5607,-8.5671,-8.5677,-8.5704,-8.5735,-8.5737,-8.5592,-8.5573,-8.5554,-8.5531,-8.574,-8.5741,-8.5886,-8.5888,-8.5889]}]]